STARLINK-3390

decayed
NORAD ID: 51119 Int'l Des: 2022-005 Owner: SPXS Country: US Constellation: starlink
LEOCIRCULAR
Group

About STARLINK-3390

Description loading...

Altitude History

Altitude vs Time

uPlot chart will show altitude changes over time

Two-Line Element Set

1 51119U 22005R 24208.89690019 .41093859 12457-4 19671-2 0 9992
2 51119 53.2014 1.0022 0007823 287.7181 156.5968 16.42553770141649
Epoch: Jul 26, 2024 • Age: 9971 hours

Current Status

Position data unavailable
Launch Date Jan 19, 2022
Age 3.6 years
Decay Date Jul 26, 2024
Type internet

Technical Details

Classification Payload
Mass 297.00 kg
Dry Mass 275.00 kg
Total Mass 297.00 kg
Length 0.20 m
Diameter 2.80 m
Span 9.00 m
Shape Box + pan
Manufacturer SPXS
Bus Type Starlink
Phase Status Reentered
Owner/State SPXS/US

Large Constellations

Loading constellations...